SCP
-0 -0 -0 -0 0 0 0 0 0 0 0 0 0 0 0 0 0 0 0 -0 -0 -0 0 0 -0 -0 0 -0 -0 0 0 -0 0 0 0 0 0 0 0 -0 -0 0 0
0 0 0 0 0 0 0 0 0 0 0 0 0 0 0 0 0 0 -0 -0 -0 -0 -0 -0 -0 -0 0 0 0 0 0 0 0 0 0 0 0 -0 0 0 0 -0 -0
-0 0 0 0 0 0 0 0 -0 0 0 0 0 0 0 0 0 0 -0 -0 -0 -0 -0 0 -0 0 0 0 0 0 0 0 0 0 0 0 0 -0 0 0 0 0 -0
-0 -0 0 0 0 0 0 0 0 0 0 0 0 0 0 0 0 0 -0 -0 -0 -0 0 0 -0 -0 0 0 -0 0 0 0 0 0 0 0 0 0 0 0 0 -0 -0
-0 0 0 0 0 0 0 0 0 0 0 0 0 0 -0 0 0 0 -0 -0 -0 -0 0 -0 0 0 -0 -0 -0 -0 0 0 0 0 0 0 0 0 0 -0 0 0 0
-0 0 0 0 0 0 0 0 0 0 0 0 0 0 -0 0 0 0 -0 -0 -0 -0 -0 -0 -0 -0 -0 0 0 0 -0 0 0 0 0 0 0 0 -0 -0 -0 -0 -0
-0 0 0 0 0 0 0 0 0 0 0 0 0 0 -0 -0 0 -0 -0 -0 0 -0 -0 -0 -0 -0 -0 -0 0 0 -0 0 0 0 0 0 0 0 0 -0 -0 -0 -0
-0 -0 0 0 0 0 0 0 0 0 0 0 0 -0 0 -0 0 0 0 -0 -0 -0 -0 -0 -0 0 0 0 0 0 -0 0 0 0 -0 0 0 -0 -0 0 0 0 0
0 -0 0 0 0 0 0 0 0 -0 0 0 -0 0 0 0 0 0 -0 0 -0 -0 -0 0 -0 0 0 0 0 0 -0 -0 0 0 0 0 -0 -0 -0 -0 0 0 0
-0 0 0 -0 0 0 0 0 -0 -0 -0 0 0 0 -0 0 -0 -0 0 0 0 -0 -0 -0 0 -0 -0 -0 -0 -0 -0 -0 0 0 0 -0 -0 -0 -0 -0 -0 0 0
-0 0 -0 0 0 0 -0 0 0 -0 -0 -0 -0 0 -0 -0 -0 -0 -0 0 0 -0 -0 -0 -0 -0 -0 -0 -0 -0 -0 0 0 0 0 -0 0 -0 -0 -0 -0 0 0
0 -0 -0 -0 0 -0 -0 0 -0 0 0 -0 -0 0 -0 -0 0 0 0 0 -0 -0 -0 -0 -0 -0 -0 0 -0 -0 -0 -0 0 0 0 -0 -0 -0 -0 -0 -0 0 0
0 -0 -0 0 -0 -0 0 -0 0 0 -0 -0 -0 -0 -0 0 0 0 0 -0 -0 -0 0 -0 -0 0 -0 0 -0 -0 -0 0 0 0 0 -0 -0 -0 -0 -0 0 -0 -0
-0 0 0 0 -0 -0 -0 0 0 0 -0 -0 -0 0 -0 0 0 0 0 0 -0 0 -0 0 -0 0 -0 -0 -0 -0 -0 -0 0 0 0 -0 0 -0 0 -0 -0 -0 -0
0 0 0 -0 -0 -0 -0 0 0 0 0 0 0 0 0 0 0 0 0 0 -0 -0 -0 -0 -0 -0 -0 0 -0 -0 -0 -0 0 0 0 -0 0 0 -0 -0 -0 -0 0
-0 0 -0 -0 -0 -0 -0 0 0 0 0 0 0 0 0 0 0 0 0 0 -0 -0 -0 -0 0 -0 -0 0 0 -0 -0 -0 -0 -0 0 -0 0 0 0 -0 -0 0 0
0 0 -0 -0 -0 -0 0 0 0 0 0 0 0 0 0 0 -0 0 0 -0 -0 -0 -0 -0 -0 -0 -0 0 0 0 -0 -0 -0 -0 -0 -0 -0 0 -0 0 -0 -0 -0
0 -0 -0 -0 -0 -0 -0 -0 0 0 0 0 0 0 0 0 -0 -0 0 0 -0 -0 -0 -0 0 -0 0 0 0 0 0 0 0 -0 -0 -0 -0 -0 0 0 0 0 0
0 -0 -0 -0 -0 -0 -0 0 0 0 0 0 0 0 0 0 0 0 0 0 0 0 -0 0 0 0 -0 -0 -0 0 0 0 0 -0 -0 0 0 0 0 0 0 0 0
0 0 -0 0 -0 -0 -0 -0 0 0 0 0 0 0 -0 -0 -0 -0 -0 -0 -0 -0 0 -0 0 0 0 0 -0 0 0 0 -0 -0 -0 -0 -0 -0 0 0 0 0 0
0 0 -0 0 -0 0 0 -0 0 0 0 0 -0 -0 -0 -0 0 0 0 0 0 -0 0 -0 0 0 0 0 0 0 0 0 -0 -0 -0 -0 -0 -0 -0 0 0 -0 0
0 0 -0 -0 0 0 -0 0 0 0 0 0 0 0 -0 0 0 0 0 0 0 0 0 0 0 0 0 0 0 0 0 0 -0 -0 -0 -0 -0 -0 -0 -0 0 0 -0
0 0 -0 -0 0 0 -0 0 0 0 0 0 -0 0 0 0 0 0 0 0 0 0 0 0 0 0 0 0 0 0 0 0 0 0 -0 -0 -0 -0 -0 -0 -0 0 0
0 -0 0 0 -0 0 0 0 0 0 0 -0 -0 0 0 0 0 0 0 0 0 0 0 0 0 0 0 0 0 0 0 0 0 0 0 0 -0 -0 -0 -0 -0 -0 -0
0 0 -0 -0 -0 -0 -0 0 0 0 0 0 0 0 0 0 0 0 0 0 0 0 0 0 0 -0 0 0 0 0 0 0 0 0 0 0 0 0 0 -0 0 -0 -0
0 0 0 0 -0 -0 -0 -0 -0 -0 -0 0 -0 0 0 0 0 0 0 0 0 -0 -0 0 0 0 0 0 0 0 0 0 0 0 0 0 0 0 0 0 0 -0 -0
Wind_Speed_500mb
40 36 35 36 33 32 32 29 27 24 24 22 23 22 23 21 20 18 19 21 25 25 28 31 34 38 40 41 39 41 40 40 40 41 40 41 42 43 46 47 43 42 42
46 39 34 33 29 29 30 27 23 21 19 20 21 19 20 21 24 24 25 26 27 28 33 34 36 36 38 38 38 39 40 39 39 39 39 39 39 42 41 42 40 42 40
46 41 34 29 26 26 27 26 23 20 19 19 19 20 22 24 23 25 27 27 27 28 32 33 34 34 36 37 35 37 34 32 35 37 41 34 37 38 38 39 40 38 37
46 41 34 28 23 21 22 23 22 18 17 17 16 19 21 25 25 26 29 32 31 31 34 30 31 32 33 33 32 31 28 29 34 36 34 34 33 35 36 35 37 35 36
45 41 33 28 21 20 20 18 17 19 17 17 17 19 20 25 24 25 27 32 34 29 29 28 29 31 35 28 28 29 28 26 28 33 33 33 30 33 33 32 33 35 34
43 38 31 25 21 19 18 17 16 19 17 18 19 19 20 26 25 25 26 25 28 27 26 29 25 30 30 30 29 26 26 25 25 26 30 31 29 29 30 29 31 33 31
41 34 28 23 19 15 15 15 16 19 20 20 19 19 22 30 26 25 26 23 25 24 25 26 25 29 31 27 24 25 24 25 26 26 25 26 26 25 26 27 28 29 29
37 33 26 21 15 13 11 14 17 19 22 19 19 18 23 29 26 23 23 22 25 22 26 30 29 26 22 22 21 19 21 24 26 26 26 23 22 22 22 24 26 27 26
35 31 25 19 14 13 9 9 19 24 23 20 20 22 28 27 23 21 18 20 20 20 23 23 21 17 15 13 11 17 20 21 23 22 21 19 18 18 20 20 21 21 25
34 30 25 21 19 14 13 19 30 29 27 24 20 25 29 20 19 20 20 13 16 18 20 21 18 18 16 15 15 17 18 18 18 17 16 15 13 14 17 19 19 18 18
36 30 25 21 20 22 20 26 32 29 26 26 24 30 27 22 22 24 13 13 13 17 18 19 15 12 10 13 14 13 15 15 16 13 13 13 13 15 17 18 17 18 16
37 33 27 24 23 23 23 27 28 27 25 25 24 26 25 17 16 20 16 13 12 15 14 16 13 8 4 7 11 11 8 10 13 14 12 13 13 11 13 12 13 16 17
38 36 31 27 26 25 25 26 27 24 23 21 19 21 16 15 15 16 16 11 10 11 12 10 9 9 6 3 7 8 12 13 13 12 11 12 13 10 9 12 13 15 17
39 36 35 31 29 29 28 24 23 23 20 17 17 17 14 17 15 12 13 14 12 10 10 12 10 9 8 9 7 6 9 6 9 10 11 13 10 8 9 12 12 13 14
42 38 36 36 32 32 28 26 24 23 19 18 16 14 16 11 14 9 13 14 14 11 9 8 8 12 10 7 9 8 10 5 2 7 10 11 9 8 6 10 12 11 10
43 41 38 37 31 30 25 22 20 20 16 12 10 10 9 11 14 8 13 15 16 14 11 10 7 10 9 9 13 17 12 4 5 9 11 10 7 5 5 9 9 11 11
44 43 40 37 30 26 23 21 16 13 9 4 4 5 4 4 8 17 6 14 13 13 11 9 13 13 19 18 14 24 17 10 9 8 13 13 10 7 9 11 9 9 9
48 47 42 36 31 26 22 19 16 11 6 3 4 5 3 3 7 11 9 13 18 14 11 11 6 10 11 17 19 27 28 21 15 9 11 15 15 13 11 11 11 10 10
46 48 45 35 30 24 21 19 17 13 7 1 2 3 3 1 6 7 9 14 17 15 15 12 4 6 8 12 13 18 25 26 20 14 11 16 18 16 15 15 15 11 14
49 46 43 38 35 27 23 19 19 15 11 8 5 3 3 3 7 5 7 12 15 14 14 16 12 6 5 16 11 13 17 24 28 22 17 16 20 18 19 19 18 17 19
49 50 46 39 37 32 29 24 21 19 16 17 13 7 1 2 6 7 4 8 12 14 14 16 20 17 13 13 12 14 15 19 24 27 25 22 18 18 22 21 18 19 23
52 49 49 40 35 30 28 21 16 17 19 17 17 13 11 8 11 10 8 8 9 15 20 18 20 23 23 20 18 15 14 21 26 24 24 26 24 23 21 19 20 21 24
60 54 50 43 36 33 30 26 21 18 16 20 21 16 11 12 13 14 12 10 11 13 15 14 16 19 25 29 21 13 10 11 17 27 27 26 24 25 24 22 19 19 20
61 58 53 42 38 38 36 33 28 29 22 17 21 19 19 16 16 14 17 18 19 18 16 17 17 17 19 24 27 28 27 11 11 9 19 30 28 28 26 26 24 21 20
62 58 56 51 44 45 42 39 36 32 29 18 18 18 22 23 21 20 20 18 28 24 20 17 18 18 19 21 25 27 25 32 25 15 9 14 25 26 30 27 28 26 24
62 66 67 64 59 49 50 45 46 36 29 22 17 18 19 22 22 19 20 20 15 16 21 23 20 19 23 22 24 26 28 24 29 29 25 19 18 18 24 33 39 38 33
Wind_Direction_500mb
158 147 146 144 136 133 138 137 139 140 136 131 125 119 112 105 105 114 114 116 119 116 111 108 112 113 104 101 101 96 96 96 98 102 104 104 102 106 111 115 113 113 115
151 148 145 143 142 139 139 139 137 137 137 131 129 126 122 109 107 109 111 116 119 116 116 111 116 116 111 108 106 100 98 96 95 98 100 104 106 107 108 113 114 113 115
150 146 144 141 141 141 143 143 144 149 139 131 131 129 127 117 111 109 112 119 120 118 120 118 124 120 116 113 109 105 103 99 100 103 102 101 105 109 113 112 112 114 115
151 147 145 142 143 146 147 151 160 158 156 144 137 136 130 126 115 115 113 116 118 122 121 124 128 127 122 113 109 111 109 108 105 104 100 102 105 113 114 115 115 113 112
154 148 150 147 153 153 147 154 167 174 173 161 147 140 138 136 125 123 122 119 116 117 122 124 123 123 113 112 109 108 109 109 107 106 104 104 106 116 116 115 115 116 114
154 152 156 152 153 155 158 164 170 174 173 169 156 148 143 142 137 132 131 132 126 124 125 126 125 120 118 113 105 107 109 102 103 109 107 109 109 114 118 119 117 116 116
155 155 158 152 156 159 170 171 178 178 168 166 159 150 151 149 145 136 134 132 131 131 130 133 140 133 128 123 109 109 104 106 110 110 112 107 112 115 117 121 120 119 119
157 158 158 155 160 160 169 173 165 169 162 157 149 142 147 148 147 136 132 136 134 140 138 135 132 132 128 129 120 109 106 106 104 111 114 109 110 119 121 119 116 120 121
164 160 159 152 153 143 143 168 175 164 151 143 138 136 142 146 144 134 133 134 137 141 143 137 133 126 113 114 126 123 111 103 112 112 111 118 114 123 127 126 125 122 117
164 162 160 151 146 131 114 106 131 142 138 136 127 121 133 134 129 128 142 139 145 147 153 152 149 140 121 115 122 128 115 106 116 112 115 125 117 132 144 137 133 135 129
166 163 157 152 142 133 115 117 122 127 133 129 129 143 138 141 158 171 142 143 153 152 158 163 154 137 115 107 118 141 118 112 116 118 121 122 117 104 126 140 130 136 140
166 162 155 150 143 136 128 130 125 127 127 125 132 139 141 148 164 165 159 161 159 159 149 164 172 171 131 103 119 126 139 129 117 115 122 128 134 129 144 149 145 131 145
166 162 155 151 146 142 135 130 130 130 127 130 135 141 139 151 166 169 169 173 158 164 164 162 161 180 204 174 153 128 139 110 105 121 133 128 141 142 157 168 157 143 136
167 163 156 153 146 139 133 127 133 129 126 128 147 154 157 153 152 168 170 174 169 160 169 185 193 197 200 197 173 133 156 123 125 137 143 143 147 136 152 180 175 161 159
166 165 159 155 145 142 129 124 123 125 118 114 119 136 154 140 167 171 181 198 197 185 179 199 208 210 213 205 197 177 162 148 117 157 158 148 150 155 183 167 174 172 181
168 168 164 162 154 149 144 137 132 124 124 116 110 112 157 186 197 168 196 206 203 199 216 218 228 215 227 239 225 203 190 231 232 188 173 176 164 166 181 181 176 188 183
170 171 168 163 162 156 155 153 160 149 136 158 139 143 152 193 233 220 214 202 205 200 220 200 237 240 244 243 240 206 207 238 190 191 188 196 191 197 200 198 186 197 199
182 178 171 165 165 166 165 167 174 167 152 227 241 216 205 292 304 241 233 215 205 216 224 243 269 238 238 251 234 219 235 208 202 205 208 211 223 224 211 213 216 207 202
187 188 187 182 182 184 184 189 188 188 171 175 284 217 183 259 314 294 234 222 215 222 231 230 249 255 271 201 185 186 183 198 207 219 223 220 226 230 225 222 230 216 217
192 196 195 192 188 191 195 201 211 213 220 255 309 338 121 15 339 305 257 235 224 225 234 225 213 208 167 166 173 201 211 219 214 216 227 228 231 227 232 224 235 243 221
194 194 193 194 197 201 210 217 227 237 247 260 266 259 230 331 339 356 300 263 254 248 245 235 227 216 204 200 205 212 220 221 221 233 234 230 241 243 240 237 235 237 213
203 200 202 203 201 208 212 227 246 259 252 255 249 261 251 283 297 304 318 293 275 264 261 238 233 229 227 214 209 210 207 227 231 235 241 234 236 245 248 241 235 229 230
206 209 205 203 209 214 214 225 239 247 261 254 239 252 271 299 300 285 289 305 306 295 287 249 239 234 243 235 216 205 205 212 220 239 238 232 229 235 238 242 236 235 241
211 209 211 215 225 224 218 228 237 245 257 261 247 250 251 285 300 285 282 288 302 292 283 271 252 252 250 241 236 225 223 207 208 222 227 225 234 239 239 241 241 241 243
215 218 221 226 235 227 224 233 236 236 244 258 259 255 257 278 284 300 304 287 299 262 277 279 273 267 264 243 237 239 244 237 223 235 234 219 226 239 244 242 237 238 241
220 225 230 233 238 235 235 238 232 237 242 255 272 276 275 280 291 317 314 302 321 256 255 283 268 271 269 260 247 246 247 246 242 249 248 252 262 264 275 245 238 238 241
Wind_Speed_850mb
40 36 35 36 33 32 32 29 27 24 24 22 23 22 23 21 20 18 19 21 25 25 28 31 34 38 40 41 39 41 40 40 40 41 40 41 42 43 46 47 43 42 42
46 39 34 33 29 29 30 27 23 21 19 20 21 19 20 21 24 24 25 26 27 28 33 34 36 36 38 38 38 39 40 39 39 39 39 39 39 42 41 42 40 42 40
46 41 34 29 26 26 27 26 23 20 19 19 19 20 22 24 23 25 27 27 27 28 32 33 34 34 36 37 35 37 34 32 35 37 41 34 37 38 38 39 40 38 37
46 41 34 28 23 21 22 23 22 18 17 17 16 19 21 25 25 26 29 32 31 31 34 30 31 32 33 33 32 31 28 29 34 36 34 34 33 35 36 35 37 35 36
45 41 33 28 21 20 20 18 17 19 17 17 17 19 20 25 24 25 27 32 34 29 29 28 29 31 35 28 28 29 28 26 28 33 33 33 30 33 33 32 33 35 34
43 38 31 25 21 19 18 17 16 19 17 18 19 19 20 26 25 25 26 25 28 27 26 29 25 30 30 30 29 26 26 25 25 26 30 31 29 29 30 29 31 33 31
41 34 28 23 19 15 15 15 16 19 20 20 19 19 22 30 26 25 26 23 25 24 25 26 25 29 31 27 24 25 24 25 26 26 25 26 26 25 26 27 28 29 29
37 33 26 21 15 13 11 14 17 19 22 19 19 18 23 29 26 23 23 22 25 22 26 30 29 26 22 22 21 19 21 24 26 26 26 23 22 22 22 24 26 27 26
35 31 25 19 14 13 9 9 19 24 23 20 20 22 28 27 23 21 18 20 20 20 23 23 21 17 15 13 11 17 20 21 23 22 21 19 18 18 20 20 21 21 25
34 30 25 21 19 14 13 19 30 29 27 24 20 25 29 20 19 20 20 13 16 18 20 21 18 18 16 15 15 17 18 18 18 17 16 15 13 14 17 19 19 18 18
36 30 25 21 20 22 20 26 32 29 26 26 24 30 27 22 22 24 13 13 13 17 18 19 15 12 10 13 14 13 15 15 16 13 13 13 13 15 17 18 17 18 16
37 33 27 24 23 23 23 27 28 27 25 25 24 26 25 17 16 20 16 13 12 15 14 16 13 8 4 7 11 11 8 10 13 14 12 13 13 11 13 12 13 16 17
38 36 31 27 26 25 25 26 27 24 23 21 19 21 16 15 15 16 16 11 10 11 12 10 9 9 6 3 7 8 12 13 13 12 11 12 13 10 9 12 13 15 17
39 36 35 31 29 29 28 24 23 23 20 17 17 17 14 17 15 12 13 14 12 10 10 12 10 9 8 9 7 6 9 6 9 10 11 13 10 8 9 12 12 13 14
42 38 36 36 32 32 28 26 24 23 19 18 16 14 16 11 14 9 13 14 14 11 9 8 8 12 10 7 9 8 10 5 2 7 10 11 9 8 6 10 12 11 10
43 41 38 37 31 30 25 22 20 20 16 12 10 10 9 11 14 8 13 15 16 14 11 10 7 10 9 9 13 17 12 4 5 9 11 10 7 5 5 9 9 11 11
44 43 40 37 30 26 23 21 16 13 9 4 4 5 4 4 8 17 6 14 13 13 11 9 13 13 19 18 14 24 17 10 9 8 13 13 10 7 9 11 9 9 9
48 47 42 36 31 26 22 19 16 11 6 3 4 5 3 3 7 11 9 13 18 14 11 11 6 10 11 17 19 27 28 21 15 9 11 15 15 13 11 11 11 10 10
46 48 45 35 30 24 21 19 17 13 7 1 2 3 3 1 6 7 9 14 17 15 15 12 4 6 8 12 13 18 25 26 20 14 11 16 18 16 15 15 15 11 14
49 46 43 38 35 27 23 19 19 15 11 8 5 3 3 3 7 5 7 12 15 14 14 16 12 6 5 16 11 13 17 24 28 22 17 16 20 18 19 19 18 17 19
49 50 46 39 37 32 29 24 21 19 16 17 13 7 1 2 6 7 4 8 12 14 14 16 20 17 13 13 12 14 15 19 24 27 25 22 18 18 22 21 18 19 23
52 49 49 40 35 30 28 21 16 17 19 17 17 13 11 8 11 10 8 8 9 15 20 18 20 23 23 20 18 15 14 21 26 24 24 26 24 23 21 19 20 21 24
60 54 50 43 36 33 30 26 21 18 16 20 21 16 11 12 13 14 12 10 11 13 15 14 16 19 25 29 21 13 10 11 17 27 27 26 24 25 24 22 19 19 20
61 58 53 42 38 38 36 33 28 29 22 17 21 19 19 16 16 14 17 18 19 18 16 17 17 17 19 24 27 28 27 11 11 9 19 30 28 28 26 26 24 21 20
62 58 56 51 44 45 42 39 36 32 29 18 18 18 22 23 21 20 20 18 28 24 20 17 18 18 19 21 25 27 25 32 25 15 9 14 25 26 30 27 28 26 24
62 66 67 64 59 49 50 45 46 36 29 22 17 18 19 22 22 19 20 20 15 16 21 23 20 19 23 22 24 26 28 24 29 29 25 19 18 18 24 33 39 38 33
Wind_Direction_850mb
158 147 146 144 136 133 138 137 139 140 136 131 125 119 112 105 105 114 114 116 119 116 111 108 112 113 104 101 101 96 96 96 98 102 104 104 102 106 111 115 113 113 115
151 148 145 143 142 139 139 139 137 137 137 131 129 126 122 109 107 109 111 116 119 116 116 111 116 116 111 108 106 100 98 96 95 98 100 104 106 107 108 113 114 113 115
150 146 144 141 141 141 143 143 144 149 139 131 131 129 127 117 111 109 112 119 120 118 120 118 124 120 116 113 109 105 103 99 100 103 102 101 105 109 113 112 112 114 115
151 147 145 142 143 146 147 151 160 158 156 144 137 136 130 126 115 115 113 116 118 122 121 124 128 127 122 113 109 111 109 108 105 104 100 102 105 113 114 115 115 113 112
154 148 150 147 153 153 147 154 167 174 173 161 147 140 138 136 125 123 122 119 116 117 122 124 123 123 113 112 109 108 109 109 107 106 104 104 106 116 116 115 115 116 114
154 152 156 152 153 155 158 164 170 174 173 169 156 148 143 142 137 132 131 132 126 124 125 126 125 120 118 113 105 107 109 102 103 109 107 109 109 114 118 119 117 116 116
155 155 158 152 156 159 170 171 178 178 168 166 159 150 151 149 145 136 134 132 131 131 130 133 140 133 128 123 109 109 104 106 110 110 112 107 112 115 117 121 120 119 119
157 158 158 155 160 160 169 173 165 169 162 157 149 142 147 148 147 136 132 136 134 140 138 135 132 132 128 129 120 109 106 106 104 111 114 109 110 119 121 119 116 120 121
164 160 159 152 153 143 143 168 175 164 151 143 138 136 142 146 144 134 133 134 137 141 143 137 133 126 113 114 126 123 111 103 112 112 111 118 114 123 127 126 125 122 117
164 162 160 151 146 131 114 106 131 142 138 136 127 121 133 134 129 128 142 139 145 147 153 152 149 140 121 115 122 128 115 106 116 112 115 125 117 132 144 137 133 135 129
166 163 157 152 142 133 115 117 122 127 133 129 129 143 138 141 158 171 142 143 153 152 158 163 154 137 115 107 118 141 118 112 116 118 121 122 117 104 126 140 130 136 140
166 162 155 150 143 136 128 130 125 127 127 125 132 139 141 148 164 165 159 161 159 159 149 164 172 171 131 103 119 126 139 129 117 115 122 128 134 129 144 149 145 131 145
166 162 155 151 146 142 135 130 130 130 127 130 135 141 139 151 166 169 169 173 158 164 164 162 161 180 204 174 153 128 139 110 105 121 133 128 141 142 157 168 157 143 136
167 163 156 153 146 139 133 127 133 129 126 128 147 154 157 153 152 168 170 174 169 160 169 185 193 197 200 197 173 133 156 123 125 137 143 143 147 136 152 180 175 161 159
166 165 159 155 145 142 129 124 123 125 118 114 119 136 154 140 167 171 181 198 197 185 179 199 208 210 213 205 197 177 162 148 117 157 158 148 150 155 183 167 174 172 181
168 168 164 162 154 149 144 137 132 124 124 116 110 112 157 186 197 168 196 206 203 199 216 218 228 215 227 239 225 203 190 231 232 188 173 176 164 166 181 181 176 188 183
170 171 168 163 162 156 155 153 160 149 136 158 139 143 152 193 233 220 214 202 205 200 220 200 237 240 244 243 240 206 207 238 190 191 188 196 191 197 200 198 186 197 199
182 178 171 165 165 166 165 167 174 167 152 227 241 216 205 292 304 241 233 215 205 216 224 243 269 238 238 251 234 219 235 208 202 205 208 211 223 224 211 213 216 207 202
187 188 187 182 182 184 184 189 188 188 171 175 284 217 183 259 314 294 234 222 215 222 231 230 249 255 271 201 185 186 183 198 207 219 223 220 226 230 225 222 230 216 217
192 196 195 192 188 191 195 201 211 213 220 255 309 338 121 15 339 305 257 235 224 225 234 225 213 208 167 166 173 201 211 219 214 216 227 228 231 227 232 224 235 243 221
194 194 193 194 197 201 210 217 227 237 247 260 266 259 230 331 339 356 300 263 254 248 245 235 227 216 204 200 205 212 220 221 221 233 234 230 241 243 240 237 235 237 213
203 200 202 203 201 208 212 227 246 259 252 255 249 261 251 283 297 304 318 293 275 264 261 238 233 229 227 214 209 210 207 227 231 235 241 234 236 245 248 241 235 229 230
206 209 205 203 209 214 214 225 239 247 261 254 239 252 271 299 300 285 289 305 306 295 287 249 239 234 243 235 216 205 205 212 220 239 238 232 229 235 238 242 236 235 241
211 209 211 215 225 224 218 228 237 245 257 261 247 250 251 285 300 285 282 288 302 292 283 271 252 252 250 241 236 225 223 207 208 222 227 225 234 239 239 241 241 241 243
215 218 221 226 235 227 224 233 236 236 244 258 259 255 257 278 284 300 304 287 299 262 277 279 273 267 264 243 237 239 244 237 223 235 234 219 226 239 244 242 237 238 241
220 225 230 233 238 235 235 238 232 237 242 255 272 276 275 280 291 317 314 302 321 256 255 283 268 271 269 260 247 246 247 246 242 249 248 252 262 264 275 245 238 238 241